Time,TemperatureF,DewpointF,PressureIn,WindDirection,WindDirectionDegrees,WindSpeedMPH,WindSpeedGustMPH,Humidity,HourlyPrecipIn,Conditions,Clouds,dailyrainin,SoftwareType,DateUTC
2013-05-13 00:00:00,71.9,67.0,30.04,NNW,338,3.0,4.0,85,0.00,,,0.00,weatherlink.com 1.10,2013-05-13 04:00:00,
2013-05-13 00:15:00,71.7,67.0,30.04,NNW,329,2.0,4.0,85,0.00,,,0.00,weatherlink.com 1.10,2013-05-13 04:15:00,
2013-05-13 00:30:00,71.6,67.0,30.04,NNW,329,3.0,5.0,86,0.00,,,0.00,weatherlink.com 1.10,2013-05-13 04:30:00,
2013-05-13 00:45:00,71.6,68.0,30.03,NNW,328,4.0,5.0,87,0.00,,,0.00,weatherlink.com 1.10,2013-05-13 04:45:00,
2013-05-13 01:00:00,71.6,67.0,30.03,NW,325,4.0,5.0,86,0.00,,,0.00,weatherlink.com 1.10,2013-05-13 05:00:00,
2013-05-13 01:16:00,71.0,67.0,30.03,NNW,331,4.0,6.0,88,0.00,,,0.00,weatherlink.com 1.10,2013-05-13 05:16:00,
2013-05-13 01:31:00,70.6,67.0,30.02,NNW,330,4.0,5.0,89,0.00,,,0.00,weatherlink.com 1.10,2013-05-13 05:31:00,
2013-05-13 01:46:00,70.5,67.0,30.01,NNW,332,3.0,5.0,89,0.00,,,0.00,weatherlink.com 1.10,2013-05-13 05:46:00,
2013-05-13 02:01:00,70.5,68.0,30.01,NNW,332,4.0,5.0,90,0.00,,,0.00,weatherlink.com 1.10,2013-05-13 06:01:00,
2013-05-13 02:16:00,70.8,68.0,30.01,NW,317,4.0,6.0,90,0.00,,,0.00,weatherlink.com 1.10,2013-05-13 06:16:00,
2013-05-13 02:31:00,70.5,68.0,30.01,NW,323,5.0,6.0,90,0.00,,,0.00,weatherlink.com 1.10,2013-05-13 06:31:00,
2013-05-13 02:46:00,70.3,68.0,30.02,NW,311,4.0,7.0,91,0.00,,,0.00,weatherlink.com 1.10,2013-05-13 06:46:00,
2013-05-13 03:01:00,69.6,67.0,30.01,NW,325,4.0,7.0,91,0.00,,,0.00,weatherlink.com 1.10,2013-05-13 07:01:00,
2013-05-13 03:16:00,69.5,67.0,30.01,NW,318,5.0,7.0,92,0.00,,,0.00,weatherlink.com 1.10,2013-05-13 07:16:00,
2013-05-13 03:31:00,69.8,67.0,30.02,NW,321,4.0,7.0,92,0.00,,,0.00,weatherlink.com 1.10,2013-05-13 07:31:00,
2013-05-13 03:46:00,69.7,68.0,30.01,NW,318,4.0,6.0,93,0.00,,,0.00,weatherlink.com 1.10,2013-05-13 07:46:00,
2013-05-13 04:01:00,69.4,68.0,30.02,NW,309,5.0,7.0,94,0.00,,,0.00,weatherlink.com 1.10,2013-05-13 08:01:00,
2013-05-13 04:16:00,69.2,68.0,30.02,NW,325,4.0,7.0,94,0.00,,,0.00,weatherlink.com 1.10,2013-05-13 08:16:00,
2013-05-13 04:31:00,69.0,67.0,30.01,NW,307,4.0,8.0,94,0.00,,,0.00,weatherlink.com 1.10,2013-05-13 08:31:00,
2013-05-13 04:46:00,69.0,68.0,30.01,NW,304,4.0,6.0,95,0.00,,,0.00,weatherlink.com 1.10,2013-05-13 08:46:00,
2013-05-13 05:01:00,68.9,68.0,30.01,NW,316,4.0,6.0,95,0.00,,,0.00,weatherlink.com 1.10,2013-05-13 09:01:00,
2013-05-13 05:16:00,68.9,68.0,30.01,NW,313,6.0,7.0,95,0.00,,,0.00,weatherlink.com 1.10,2013-05-13 09:16:00,
2013-05-13 05:31:00,69.0,67.0,30.02,NW,318,6.0,7.0,94,0.00,,,0.00,weatherlink.com 1.10,2013-05-13 09:31:00,
2013-05-13 05:46:00,68.7,67.0,30.02,NW,318,5.0,8.0,95,0.00,,,0.00,weatherlink.com 1.10,2013-05-13 09:46:00,
2013-05-13 06:01:00,68.6,67.0,30.02,NW,313,6.0,8.0,95,0.00,,,0.00,weatherlink.com 1.10,2013-05-13 10:01:00,
2013-05-13 06:16:00,69.0,68.0,30.02,NW,321,7.0,8.0,95,0.00,,,0.00,weatherlink.com 1.10,2013-05-13 10:16:00,
2013-05-13 06:31:00,69.3,68.0,30.02,NW,319,6.0,8.0,95,0.00,,,0.00,weatherlink.com 1.10,2013-05-13 10:31:00,
2013-05-13 06:46:00,69.4,68.0,30.02,NW,322,5.0,8.0,95,0.00,,,0.00,weatherlink.com 1.10,2013-05-13 10:46:00,
2013-05-13 07:01:00,69.5,68.0,30.03,NW,308,7.0,8.0,95,0.00,,,0.00,weatherlink.com 1.10,2013-05-13 11:01:00,
2013-05-13 07:16:00,69.5,68.0,30.03,NW,309,6.0,8.0,95,0.00,,,0.00,weatherlink.com 1.10,2013-05-13 11:16:00,
2013-05-13 07:31:00,69.3,68.0,30.04,NW,313,5.0,8.0,96,0.00,,,0.00,weatherlink.com 1.10,2013-05-13 11:31:00,
2013-05-13 07:46:00,69.2,68.0,30.05,NW,310,7.0,8.0,96,0.00,,,0.00,weatherlink.com 1.10,2013-05-13 11:46:00,
2013-05-13 08:01:00,69.3,68.0,30.05,NW,312,5.0,9.0,96,0.00,,,0.00,weatherlink.com 1.10,2013-05-13 12:01:00,
2013-05-13 08:16:00,69.6,69.0,30.06,NNW,347,6.0,10.0,96,0.00,,,0.00,weatherlink.com 1.10,2013-05-13 12:16:00,
2013-05-13 08:31:00,70.0,68.0,30.06,NNW,344,7.0,10.0,94,0.00,,,0.00,weatherlink.com 1.10,2013-05-13 12:31:00,
2013-05-13 08:46:00,70.5,68.0,30.07,North,360,7.0,10.0,92,0.00,,,0.00,weatherlink.com 1.10,2013-05-13 12:46:00,
2013-05-13 09:01:00,70.9,68.0,30.08,North,11,6.0,11.0,89,0.00,,,0.00,weatherlink.com 1.10,2013-05-13 13:01:00,
2013-05-13 09:16:00,71.1,67.0,30.09,North,5,7.0,9.0,87,0.00,,,0.00,weatherlink.com 1.10,2013-05-13 13:16:00,
2013-05-13 09:31:00,71.6,66.0,30.09,NNE,16,9.0,11.0,83,0.00,,,0.00,weatherlink.com 1.10,2013-05-13 13:31:00,
2013-05-13 09:46:00,71.9,67.0,30.09,North,360,9.0,10.0,83,0.00,,,0.00,weatherlink.com 1.10,2013-05-13 13:46:00,
2013-05-13 10:01:00,72.0,66.0,30.09,NNE,32,8.0,11.0,81,0.00,,,0.00,weatherlink.com 1.10,2013-05-13 14:01:00,
2013-05-13 10:16:00,71.9,65.0,30.10,NNE,26,8.0,10.0,79,0.00,,,0.00,weatherlink.com 1.10,2013-05-13 14:16:00,
2013-05-13 10:31:00,72.1,65.0,30.10,NNE,15,9.0,11.0,79,0.00,,,0.00,weatherlink.com 1.10,2013-05-13 14:31:00,
2013-05-13 10:46:00,72.4,64.0,30.11,NNE,22,8.0,11.0,76,0.00,,,0.00,weatherlink.com 1.10,2013-05-13 14:46:00,
2013-05-13 11:01:00,72.9,64.0,30.11,NNE,32,11.0,14.0,73,0.00,,,0.00,weatherlink.com 1.10,2013-05-13 15:01:00,
2013-05-13 11:17:00,73.8,65.0,30.12,NNE,18,9.0,14.0,73,0.00,,,0.00,weatherlink.com 1.10,2013-05-13 15:17:00,
2013-05-13 11:32:00,75.0,65.0,30.12,NNE,26,7.0,13.0,72,0.00,,,0.00,weatherlink.com 1.10,2013-05-13 15:32:00,
2013-05-13 11:47:00,76.2,64.0,30.12,NNE,12,8.0,12.0,66,0.00,,,0.00,weatherlink.com 1.10,2013-05-13 15:47:00,
2013-05-13 12:02:00,77.1,63.0,30.12,NNE,17,5.0,13.0,63,0.00,,,0.00,weatherlink.com 1.10,2013-05-13 16:02:00,
2013-05-13 12:17:00,77.4,62.0,30.12,NNE,30,6.0,11.0,60,0.00,,,0.00,weatherlink.com 1.10,2013-05-13 16:17:00,
2013-05-13 12:32:00,78.0,64.0,30.12,NE,46,7.0,13.0,63,0.00,,,0.00,weatherlink.com 1.10,2013-05-13 16:32:00,
2013-05-13 12:47:00,78.0,63.0,30.12,NNE,32,11.0,15.0,61,0.00,,,0.00,weatherlink.com 1.10,2013-05-13 16:47:00,
2013-05-13 13:02:00,78.0,61.0,30.12,NNE,29,11.0,13.0,57,0.00,,,0.00,weatherlink.com 1.10,2013-05-13 17:02:00,
2013-05-13 13:17:00,78.6,60.0,30.12,North,5,8.0,14.0,54,0.00,,,0.00,weatherlink.com 1.10,2013-05-13 17:17:00,
2013-05-13 13:32:00,78.3,60.0,30.11,NE,44,4.0,14.0,54,0.00,,,0.00,weatherlink.com 1.10,2013-05-13 17:32:00,
2013-05-13 13:47:00,79.0,60.0,30.10,NNW,340,2.0,11.0,52,0.00,,,0.00,weatherlink.com 1.10,2013-05-13 17:47:00,
2013-05-13 14:02:00,80.0,62.0,30.10,NE,38,5.0,10.0,54,0.00,,,0.00,weatherlink.com 1.10,2013-05-13 18:02:00,
2013-05-13 14:17:00,80.2,61.0,30.10,North,360,5.0,15.0,52,0.00,,,0.00,weatherlink.com 1.10,2013-05-13 18:17:00,
2013-05-13 14:32:00,80.5,62.0,30.09,East,86,3.0,7.0,53,0.00,,,0.00,weatherlink.com 1.10,2013-05-13 18:32:00,
2013-05-13 14:47:00,80.9,61.0,30.09,NNW,346,7.0,17.0,51,0.00,,,0.00,weatherlink.com 1.10,2013-05-13 18:47:00,
2013-05-13 15:02:00,81.4,60.0,30.08,NNE,22,12.0,15.0,49,0.00,,,0.00,weatherlink.com 1.10,2013-05-13 19:02:00,
2013-05-13 15:17:00,81.5,60.0,30.08,North,11,9.0,17.0,48,0.00,,,0.00,weatherlink.com 1.10,2013-05-13 19:17:00,
2013-05-13 15:32:00,81.6,60.0,30.08,North,11,14.0,17.0,48,0.00,,,0.00,weatherlink.com 1.10,2013-05-13 19:32:00,
2013-05-13 15:47:00,81.0,59.0,30.07,NNE,16,6.0,15.0,47,0.00,,,0.00,weatherlink.com 1.10,2013-05-13 19:47:00,
2013-05-13 16:02:00,81.1,59.0,30.07,NNE,24,10.0,18.0,47,0.00,,,0.00,weatherlink.com 1.10,2013-05-13 20:02:00,
2013-05-13 16:17:00,81.6,59.0,30.07,NNW,338,10.0,15.0,46,0.00,,,0.00,weatherlink.com 1.10,2013-05-13 20:17:00,
2013-05-13 16:32:00,81.6,58.0,30.06,NNE,16,9.0,17.0,44,0.00,,,0.00,weatherlink.com 1.10,2013-05-13 20:32:00,
2013-05-13 16:47:00,81.6,58.0,30.06,North,355,3.0,14.0,45,0.00,,,0.00,weatherlink.com 1.10,2013-05-13 20:47:00,
2013-05-13 17:02:00,82.5,58.0,30.06,NW,323,7.0,11.0,44,0.00,,,0.00,weatherlink.com 1.10,2013-05-13 21:02:00,
2013-05-13 17:17:00,82.7,57.0,30.05,NNW,348,6.0,14.0,42,0.00,,,0.00,weatherlink.com 1.10,2013-05-13 21:17:00,
2013-05-13 17:32:00,82.5,56.0,30.05,NW,320,5.0,12.0,41,0.00,,,0.00,weatherlink.com 1.10,2013-05-13 21:32:00,
2013-05-13 17:47:00,82.3,57.0,30.05,WNW,302,10.0,13.0,42,0.00,,,0.00,weatherlink.com 1.10,2013-05-13 21:47:00,
2013-05-13 18:02:00,81.7,55.0,30.05,NW,308,7.0,15.0,40,0.00,,,0.00,weatherlink.com 1.10,2013-05-13 22:02:00,
2013-05-13 18:17:00,81.4,55.0,30.05,NNW,343,10.0,12.0,41,0.00,,,0.00,weatherlink.com 1.10,2013-05-13 22:17:00,
2013-05-13 18:32:00,80.7,54.0,30.05,NW,321,7.0,11.0,40,0.00,,,0.00,weatherlink.com 1.10,2013-05-13 22:32:00,
2013-05-13 18:47:00,80.0,55.0,30.05,North,360,4.0,12.0,43,0.00,,,0.00,weatherlink.com 1.10,2013-05-13 22:47:00,
2013-05-13 19:02:00,78.8,53.0,30.05,NNW,337,5.0,10.0,41,0.00,,,0.00,weatherlink.com 1.10,2013-05-13 23:02:00,
2013-05-13 19:17:00,77.9,54.0,30.05,NNW,344,5.0,9.0,43,0.00,,,0.00,weatherlink.com 1.10,2013-05-13 23:17:00,
2013-05-13 19:32:00,76.8,53.0,30.06,North,355,3.0,8.0,43,0.00,,,0.00,weatherlink.com 1.10,2013-05-13 23:32:00,
2013-05-13 19:47:00,75.6,51.0,30.07,NW,311,7.0,10.0,42,0.00,,,0.00,weatherlink.com 1.10,2013-05-13 23:47:00,
2013-05-13 20:02:00,74.2,51.0,30.07,NNW,335,5.0,8.0,44,0.00,,,0.00,weatherlink.com 1.10,2013-05-14 00:02:00,
2013-05-13 20:17:00,72.9,50.0,30.08,NNW,327,9.0,11.0,45,0.00,,,0.00,weatherlink.com 1.10,2013-05-14 00:17:00,
2013-05-13 20:32:00,71.7,51.0,30.09,NNW,348,7.0,11.0,49,0.00,,,0.00,weatherlink.com 1.10,2013-05-14 00:32:00,
2013-05-13 20:47:00,71.3,53.0,30.10,NNW,344,7.0,11.0,52,0.00,,,0.00,weatherlink.com 1.10,2013-05-14 00:47:00,
2013-05-13 21:02:00,69.9,54.0,30.10,NNW,333,7.0,9.0,58,0.00,,,0.00,weatherlink.com 1.10,2013-05-14 01:02:00,
2013-05-13 21:17:00,69.0,55.0,30.10,NNW,346,5.0,10.0,61,0.00,,,0.00,weatherlink.com 1.10,2013-05-14 01:17:00,
2013-05-13 21:32:00,68.9,57.0,30.11,NNW,333,9.0,12.0,65,0.00,,,0.00,weatherlink.com 1.10,2013-05-14 01:32:00,
2013-05-13 21:47:00,68.2,56.0,30.11,NNW,327,5.0,11.0,65,0.00,,,0.00,weatherlink.com 1.10,2013-05-14 01:47:00,
2013-05-13 22:02:00,67.6,56.0,30.11,NW,320,5.0,8.0,67,0.00,,,0.00,weatherlink.com 1.10,2013-05-14 02:02:00,
2013-05-13 22:17:00,67.1,56.0,30.11,NNW,332,6.0,7.0,68,0.00,,,0.00,weatherlink.com 1.10,2013-05-14 02:17:00,
2013-05-13 22:33:00,66.8,57.0,30.12,NNW,347,5.0,8.0,70,0.00,,,0.00,weatherlink.com 1.10,2013-05-14 02:33:00,
2013-05-13 22:48:00,66.5,57.0,30.12,NW,321,5.0,9.0,71,0.00,,,0.00,weatherlink.com 1.10,2013-05-14 02:48:00,
2013-05-13 23:03:00,66.8,57.0,30.13,North,360,9.0,11.0,70,0.00,,,0.00,weatherlink.com 1.10,2013-05-14 03:03:00,
2013-05-13 23:18:00,67.0,57.0,30.12,North,5,6.0,9.0,71,0.00,,,0.00,weatherlink.com 1.10,2013-05-14 03:18:00,
2013-05-13 23:33:00,67.0,56.0,30.13,NNW,348,8.0,10.0,69,0.00,,,0.00,weatherlink.com 1.10,2013-05-14 03:33:00,
2013-05-13 23:48:00,67.3,57.0,30.13,North,355,8.0,9.0,70,0.00,,,0.00,weatherlink.com 1.10,2013-05-14 03:48:00,